Location: Auckland
(36.8670°S, 174.7670°E)
Time: 16:39:17
(UTC+13:00)

USA 238 DEB - Pass Details

Date: 24 January 2019
Orbit: 1043 x 1169 km, 63.4° (Epoch: 17 February)

Event Time Altitude Azimuth Distance (km) Brightness Sun altitude
Rises 22:12:32 0° 352° (N) 4,031 6.4 -16.7°
Reaches altitude 10° 22:15:24 10° 358° (N) 3,074 5.7 -17.1°
Maximum altitude 22:22:16 43° 66° (ENE) 1,575 4.1 -18.1°
Drops below altitude 10° 22:29:05 10° 135° (SE) 3,052 6.1 -19.1°
Sets 22:31:54 0° 141° (SE) 4,001 6.8 -19.5°
